DW9501 Weather Reports


time (UTC)temp
C
wind
direction
speed
KPH
gust
KPH
rain 1hr
cm
rain 24hr
cm
rain mn
cm
humidity
%
barometer
mb
20260504001151 11 261 0.0 4.8 0.00 0.00 0.00 73 1008.3
20260503235037 11 222 0.0 4.8 0.00 0.00 0.00 72 1008.4
20260503234026 11 267 0.0 6.4 0.00 0.00 0.00 73 1008.4
20260503231934 11 315 1.6 9.7 0.00 0.00 0.00 73 1008.7
20260503230906 11 238 3.2 9.7 0.00 0.00 0.00 73 1008.6
20260503225909 11 260 3.2 8.0 0.00 0.00 0.00 74 1008.7
20260503223745 10 250 3.2 11.3 0.00 0.00 0.00 75 1008.9
20260503222755 10 233 1.6 11.3 0.00 0.00 0.00 76 1008.9
20260503221747 10 265 3.2 9.7 0.00 0.00 0.00 77 1009.0
20260503220757 10 270 1.6 9.7 0.00 0.00 0.00 77 1009.1
20260503215743 10 269 1.6 9.7 0.00 0.00 0.00 78 1009.3
20260503214717 10 240 3.2 11.3 0.00 0.00 0.00 77 1009.3
20260503213713 10 202 1.6 11.3 0.00 0.00 0.00 77 1009.3
20260503211516 11 231 3.2 17.7 0.00 0.00 0.00 73 1009.1
20260503210450 11 316 4.8 17.7 0.00 0.00 0.00 71 1009.1
20260503205429 12 316 4.8 16.1 0.00 0.00 0.00 66 1008.9
20260503204440 12 267 6.4 17.7 0.00 0.00 0.00 63 1008.6
20260503203435 13 264 6.4 17.7 0.00 0.00 0.00 55 1008.7
20260503202427 13 250 4.8 12.9 0.00 0.00 0.00 51 1008.4
20260503200322 12 272 0.0 9.7 0.00 0.00 0.00 51 1008.4
20260503195317 12 240 0.0 9.7 0.00 0.00 0.00 51 1008.6
20260503194306 13 215 0.0 3.2 0.00 0.00 0.00 49 1008.5
20260503193253 13 184 0.0 0.0 0.00 0.00 0.00 51 1008.6
20260503192306 13 97 0.0 0.0 0.00 0.00 0.00 51 1008.8
20260503185010 13 137 0.0 8.0 0.00 0.00 0.00 47 1009.7
20260503183953 13 184 0.0 6.4 0.00 0.00 0.00 45 1009.8
20260503182947 13 240 0.0 6.4 0.00 0.00 0.00 44 1009.9
20260503181914 13 136 1.6 6.4 0.00 0.00 0.00 40 1010.2
20260503180930 13 184 0.0 6.4 0.00 0.00 0.00 41 1010.3
20260503175935 12 103 0.0 12.9 0.00 0.00 0.00 41 1010.4
20260503174948 12 217 1.6 12.9 0.00 0.00 0.00 41 1010.6
20260503173929 12 206 1.6 9.7 0.00 0.00 0.00 41 1010.9
20260503172918 12 61 1.6 12.9 0.00 0.00 0.00 42 1011.1
20260503171845 12 193 0.0 12.9 0.00 0.00 0.00 42 1011.2
20260503150435 9 197 0.0 6.4 0.00 0.00 0.00 50 1013.0
20260503090114 0 264 0.0 0.0 0.00 0.00 0.00 81 1014.2
20260503080755 -1 264 0.0 0.0 0.00 0.00 0.00 77 1014.6
20260503072536 0 264 0.0 0.0 0.00 0.00 0.00 74 1014.6
20260503071531 0 264 0.0 0.0 0.00 0.00 0.00 74 1014.6
20260503070529 0 264 0.0 0.0 0.00 0.00 0.00 74 1014.6
20260503054435 1 264 0.0 0.0 0.00 0.00 0.00 69 1015.0
20260503051138 1 264 0.0 0.0 0.00 0.00 0.00 66 1015.2
20260503050202 1 264 0.0 0.0 0.00 0.00 0.00 67 1015.2
20260503045202 1 264 0.0 0.0 0.00 0.00 0.00 65 1015.2
20260503044220 2 264 0.0 0.0 0.00 0.00 0.00 64 1015.3
20260503043226 2 264 0.0 0.0 0.00 0.00 0.00 61 1015.3
20260503042215 2 264 0.0 0.0 0.00 0.00 0.00 60 1015.4
20260503041203 3 264 0.0 0.0 0.00 0.00 0.00 59 1015.4
20260503040214 3 264 0.0 0.0 0.00 0.00 0.00 59 1015.4
20260503035212 3 264 0.0 0.0 0.00 0.00 0.00 60 1015.4
20260503034149 3 262 0.0 0.0 0.00 0.00 0.00 62 1015.4
20260503033129 3 262 0.0 0.0 0.00 0.00 0.00 63 1015.4
20260503032055 3 262 0.0 0.0 0.00 0.00 0.00 62 1015.4
20260503025930 3 262 0.0 0.0 0.00 0.00 0.00 60 1015.5
20260503024925 4 262 0.0 0.0 0.00 0.00 0.00 59 1015.5
20260503023859 4 262 0.0 0.0 0.00 0.00 0.00 58 1015.5
20260503021734 5 262 0.0 0.0 0.00 0.00 0.00 57 1015.6
20260503020734 5 252 0.0 0.0 0.00 0.00 0.00 57 1015.6
20260503015730 5 250 0.0 0.0 0.00 0.00 0.00 57 1015.5
20260503013649 5 258 0.0 0.0 0.00 0.00 0.00 56 1015.5
20260503012653 5 258 0.0 0.0 0.00 0.00 0.00 55 1015.5
20260503011651 5 259 0.0 0.0 0.00 0.00 0.00 56 1015.4
20260503010715 5 249 0.0 0.0 0.00 0.00 0.00 57 1015.4
20260503005716 5 249 0.0 0.0 0.00 0.00 0.00 56 1015.4
20260503004740 5 249 0.0 0.0 0.00 0.00 0.00 55 1015.3
20260503003733 6 249 0.0 0.0 0.00 0.00 0.00 53 1015.3
20260503002726 6 252 0.0 1.6 0.00 0.00 0.00 52 1015.2